Sauk Centre, MN

1:17 PM CDT on May 25, 2017 (GMT -0500)
Sauk Centre

Weather History for KD39 - April, 2013

Change the Weather History Date:

Tuesday, April 9, 2013

  Actual Average (KGHW) Record (KGHW)
Temperature  
Mean Temperature 28 °F -  
Max Temperature 33 °F 50 °F 77 °F (2014)
Min Temperature 24 °F 28 °F 10 °F (1989)
Degree Days  
Heating Degree Days 36    
Moisture  
Dew Point 20 °F    
Average Humidity 68    
Maximum Humidity 87    
Minimum Humidity 55    
Precipitation  
Precipitation 0.00 in - - ()
Sea Level Pressure  
Sea Level Pressure 30.12 in    
Wind  
Wind Speed 13 mph (North)    
Max Wind Speed 18 mph    
Max Gust Speed 26 mph    
Visibility 10 miles    
Events      
Averages and records for this station are not official NWS values.
T = Trace of Precipitation, MM = Missing Value Source: NWS Daily Summary

Daily Weather History Graph

Daily Weather History Graph

Search for Another Location

Airport or City:

Trip Planner

Search our weather history database for the weather conditions in past years. The results will help you decide how hot, cold, wet, or windy it might be!

Date:

Astronomy

Apr. 09, 2013 Rise Set
Actual Time 6:44 AM CDT 7:58 PM CDT
Civil Twilight 6:13 AM CDT 8:29 PM CDT
Nautical Twilight 5:36 AM CDT 9:06 PM CDT
Astronomical Twilight 4:57 AM CDT 9:45 PM CDT
Moon 6:08 AM CDT (4/9) 7:35 PM CDT (4/9)
Length of Visible Light 14h 15m
Length of Day
13h 14m
Waning Crescent, 1% of the Moon is Illuminated
Apr 9
Waning Crescent
Apr 10
New
Apr 18
First Quarter
Apr 25
Full
May 2
Last Quarter

Hourly Weather History & Observations

Time (CDT) Temp. Windchill Dew Point Humidity Pressure Visibility Wind Dir Wind Speed Gust Speed Precip Events Conditions
12:15 AM 33.8 °F 26.4 °F 30.2 °F 87% 30.09 in 10.0 mi North 9.2 mph - N/A   Overcast
12:35 AM 33.8 °F 25.8 °F 30.2 °F 87% 30.08 in 10.0 mi North 10.4 mph - N/A   Overcast
12:55 AM 33.8 °F 24.3 °F 28.4 °F 81% 30.08 in 10.0 mi North 13.8 mph - N/A   Overcast
1:15 AM 32.0 °F 22.1 °F 28.4 °F 87% 30.07 in 10.0 mi North 13.8 mph 19.6 mph N/A   Overcast
1:35 AM 32.0 °F 22.1 °F 28.4 °F 87% 30.05 in 10.0 mi North 13.8 mph - N/A   Overcast
1:55 AM 32.0 °F 22.5 °F 26.6 °F 80% 30.09 in 10.0 mi North 12.7 mph - N/A   Overcast
2:15 AM 32.0 °F 21.2 °F 24.8 °F 75% 30.08 in 10.0 mi North 16.1 mph 21.9 mph N/A   Overcast
2:35 AM 30.2 °F 20.8 °F 23.0 °F 75% 30.10 in 10.0 mi North 11.5 mph 20.7 mph N/A   Overcast
2:55 AM 30.2 °F 20.2 °F 23.0 °F 75% 30.09 in 10.0 mi North 12.7 mph - N/A   Overcast
3:15 AM 30.2 °F 19.3 °F 23.0 °F 75% 30.09 in 10.0 mi North 15.0 mph - N/A   Overcast
3:35 AM 30.2 °F 18.1 °F 23.0 °F 75% 30.06 in 10.0 mi North 18.4 mph 25.3 mph N/A   Overcast
3:55 AM 28.4 °F 17.0 °F 21.2 °F 74% 30.05 in 10.0 mi North 15.0 mph 20.7 mph N/A   Overcast
4:15 AM 28.4 °F 17.5 °F 21.2 °F 74% 30.07 in 10.0 mi North 13.8 mph 24.2 mph N/A   Overcast
4:35 AM 28.4 °F 18.5 °F 21.2 °F 74% 30.11 in 10.0 mi North 11.5 mph 17.3 mph N/A   Overcast
4:55 AM 28.4 °F 17.0 °F 19.4 °F 69% 30.10 in 10.0 mi North 15.0 mph 19.6 mph N/A   Overcast
5:15 AM 26.6 °F 15.7 °F 19.4 °F 74% 30.11 in 10.0 mi North 12.7 mph - N/A   Overcast
5:35 AM 26.6 °F 14.7 °F 19.4 °F 74% 30.12 in 10.0 mi North 15.0 mph 23.0 mph N/A   Mostly Cloudy
5:55 AM 26.6 °F 15.2 °F 19.4 °F 74% 30.12 in 10.0 mi North 13.8 mph - N/A   Mostly Cloudy
6:15 AM 24.8 °F 11.9 °F 17.6 °F 74% 30.12 in 10.0 mi North 16.1 mph 21.9 mph N/A   Overcast
6:35 AM 24.8 °F 11.9 °F 17.6 °F 74% 30.11 in 10.0 mi North 16.1 mph 21.9 mph N/A   Scattered Clouds
6:55 AM 24.8 °F 12.9 °F 17.6 °F 74% 30.11 in 10.0 mi North 13.8 mph 20.7 mph N/A   Clear
7:15 AM 24.8 °F 11.9 °F 17.6 °F 74% 30.11 in 10.0 mi North 16.1 mph 21.9 mph N/A   Mostly Cloudy
7:35 AM 24.8 °F 12.9 °F 17.6 °F 74% 30.11 in 10.0 mi North 13.8 mph 21.9 mph N/A   Overcast
7:55 AM 24.8 °F 11.1 °F 17.6 °F 74% 30.11 in 10.0 mi North 18.4 mph 24.2 mph N/A   Overcast
8:15 AM 24.8 °F 11.1 °F 17.6 °F 74% 30.12 in 10.0 mi North 18.4 mph 23.0 mph N/A   Overcast
8:35 AM 24.8 °F 11.5 °F 17.6 °F 74% 30.13 in 10.0 mi North 17.3 mph 24.2 mph N/A   Mostly Cloudy
8:55 AM 24.8 °F 11.1 °F 17.6 °F 74% 30.13 in 10.0 mi North 18.4 mph 23.0 mph N/A   Scattered Clouds
9:15 AM 24.8 °F 11.5 °F 15.8 °F 69% 30.12 in 10.0 mi North 17.3 mph 25.3 mph N/A   Mostly Cloudy
9:35 AM 24.8 °F 14.0 °F 17.6 °F 74% 30.12 in 10.0 mi North 11.5 mph - N/A   Mostly Cloudy
9:55 AM 24.8 °F 13.4 °F 17.6 °F 74% 30.14 in 10.0 mi North 12.7 mph 20.7 mph N/A   Mostly Cloudy
10:15 AM 24.8 °F 13.4 °F 17.6 °F 74% 30.14 in 10.0 mi North 12.7 mph 18.4 mph N/A   Overcast
10:35 AM 26.6 °F 14.3 °F 15.8 °F 64% 30.15 in 10.0 mi North 16.1 mph - N/A   Overcast
10:55 AM 26.6 °F 14.3 °F 17.6 °F 69% 30.15 in 10.0 mi North 16.1 mph 20.7 mph N/A   Overcast
11:15 AM 26.6 °F 16.2 °F 17.6 °F 69% 30.17 in 10.0 mi North 11.5 mph 17.3 mph N/A   Overcast
11:35 AM 26.6 °F 15.7 °F 17.6 °F 69% 30.18 in 10.0 mi North 12.7 mph 19.6 mph N/A   Overcast
11:55 AM 26.6 °F 15.2 °F 17.6 °F 69% 30.17 in 10.0 mi North 13.8 mph 20.7 mph N/A   Overcast
12:15 PM 26.6 °F 15.7 °F 17.6 °F 69% 30.16 in 10.0 mi North 12.7 mph 19.6 mph N/A   Overcast
12:35 PM 28.4 °F 15.8 °F 17.6 °F 64% 30.14 in 10.0 mi North 18.4 mph 25.3 mph N/A   Overcast
12:55 PM 28.4 °F 17.0 °F 19.4 °F 69% 30.14 in 10.0 mi North 15.0 mph 21.9 mph N/A   Mostly Cloudy
1:15 PM 30.2 °F 18.9 °F 19.4 °F 64% 30.15 in 10.0 mi North 16.1 mph - N/A   Mostly Cloudy
1:35 PM 30.2 °F 18.9 °F 19.4 °F 64% 30.15 in 10.0 mi North 16.1 mph 21.9 mph N/A   Overcast
1:55 PM 32.0 °F 22.5 °F 21.2 °F 64% 30.15 in 10.0 mi North 12.7 mph 20.7 mph N/A   Mostly Cloudy
2:15 PM 32.0 °F 21.6 °F 19.4 °F 60% 30.13 in 10.0 mi North 15.0 mph 20.7 mph N/A   Mostly Cloudy
2:35 PM 32.0 °F 21.6 °F 19.4 °F 60% 30.11 in 10.0 mi North 15.0 mph 20.7 mph N/A   Scattered Clouds
2:55 PM 32.0 °F 20.8 °F 19.4 °F 60% 30.10 in 10.0 mi North 17.3 mph 26.5 mph N/A   Mostly Cloudy
3:15 PM 32.0 °F 20.5 °F 19.4 °F 60% 30.10 in 10.0 mi North 18.4 mph 25.3 mph N/A   Scattered Clouds
3:35 PM 32.0 °F 21.2 °F 19.4 °F 60% 30.11 in 10.0 mi North 16.1 mph 24.2 mph N/A   Mostly Cloudy
3:55 PM 32.0 °F 22.1 °F 19.4 °F 60% 30.11 in 10.0 mi North 13.8 mph 21.9 mph N/A   Overcast
4:15 PM 32.0 °F 21.2 °F 17.6 °F 55% 30.12 in 10.0 mi North 16.1 mph - N/A   Overcast
4:35 PM 32.0 °F 22.5 °F 19.4 °F 60% 30.14 in 10.0 mi North 12.7 mph - N/A   Overcast
4:55 PM 32.0 °F 23.0 °F 19.4 °F 60% 30.15 in 10.0 mi North 11.5 mph - N/A   Overcast
5:15 PM 32.0 °F 23.6 °F 17.6 °F 55% 30.17 in 10.0 mi North 10.4 mph 16.1 mph N/A   Overcast
5:35 PM 32.0 °F 22.5 °F 17.6 °F 55% 30.17 in 10.0 mi North 12.7 mph 16.1 mph N/A   Overcast
5:55 PM 32.0 °F 23.0 °F 19.4 °F 60% 30.15 in 10.0 mi North 11.5 mph - N/A   Overcast
6:15 PM 32.0 °F 22.1 °F 17.6 °F 55% 30.13 in 10.0 mi North 13.8 mph - N/A   Overcast
6:35 PM 32.0 °F 23.0 °F 19.4 °F 60% 30.12 in 10.0 mi North 11.5 mph - N/A   Overcast
6:55 PM 32.0 °F 23.6 °F 19.4 °F 60% 30.12 in 10.0 mi North 10.4 mph 17.3 mph N/A   Overcast
7:15 PM 32.0 °F 21.6 °F 19.4 °F 60% 30.12 in 10.0 mi North 15.0 mph - N/A   Overcast
7:35 PM 32.0 °F 22.1 °F 19.4 °F 60% 30.12 in 10.0 mi NNE 13.8 mph 19.6 mph N/A   Overcast
7:55 PM 32.0 °F 22.5 °F 19.4 °F 60% 30.12 in 10.0 mi NNE 12.7 mph 18.4 mph N/A   Overcast
8:15 PM 32.0 °F 23.0 °F 19.4 °F 60% 30.11 in 10.0 mi NNE 11.5 mph 17.3 mph N/A   Overcast
8:35 PM 33.8 °F 25.3 °F 19.4 °F 56% 30.12 in 10.0 mi NNE 11.5 mph 18.4 mph N/A   Overcast
8:55 PM 32.0 °F 23.0 °F 19.4 °F 60% 30.12 in 10.0 mi NNE 11.5 mph - N/A   Overcast
9:15 PM 33.8 °F 25.3 °F 21.2 °F 60% 30.13 in 10.0 mi NNE 11.5 mph - N/A   Overcast
9:55 PM 33.8 °F 25.8 °F 21.2 °F 60% 30.13 in 10.0 mi North 10.4 mph - N/A   Overcast
10:15 PM 33.8 °F 25.3 °F 21.2 °F 60% 30.15 in 10.0 mi North 11.5 mph 16.1 mph N/A   Overcast
10:35 PM 33.8 °F 26.4 °F 21.2 °F 60% 30.16 in 10.0 mi North 9.2 mph - N/A   Overcast
10:55 PM 32.0 °F 24.8 °F 21.2 °F 64% 30.18 in 10.0 mi North 8.1 mph - N/A   Overcast
11:15 PM 32.0 °F 26.4 °F 23.0 °F 69% 30.19 in 10.0 mi North 5.8 mph - N/A   Overcast
11:35 PM 32.0 °F 25.6 °F 23.0 °F 69% 30.18 in 10.0 mi NNE 6.9 mph - N/A   Overcast
11:55 PM 32.0 °F 26.4 °F 23.0 °F 69% 30.18 in 10.0 mi North 5.8 mph - N/A   Overcast